Weather in Nesmeyanovka

Russia / Samara Oblast     52°36′39″N   51°06′03″E
temp.,
°C
wind,
m/s
gust,
m/s
humid.,
%
clouds,
%
prec.,
mm/h
press.,
hPa
HPBL,
m
25 february, thu
thu2501:00−28n44970 0.0 103566
04:00−29nw349610 0.0 103630
07:00−29wnw229716 0.0 103519
10:00−26sw239136 0.0 103583
13:00−22ssw4689100 0.0 1033202
16:00−19s61087100 0.0 1030341
19:00−19s81396100 0.6 1027421
22:00−17s81395100 1.8 1024618
26 february, fri
fri2601:00−15s81394100 1.5 1021619
04:00−13s71294100 2.8 1019577
07:00−13sse61194100 0.6 1017456
10:00−12sse6994100 0.9 1017431
13:00−10sse6992100 0.3 1016503
16:00−10se6991100 0.4 1016429
19:00−11sse6109396 0.1 1014298
22:00−7s81495100 1.1 1010357
27 february, sat
sat2701:00−4s101595100 2.4 1004421
04:00+1sw714100100 8.1 1001496
07:00+1w712100100 0.5 1000515
10:00+1wsw71396100 0.6 1001498
13:00+1wsw712100100 0.1 1001566
16:000wsw6119999 0.1 1001586
19:000wsw61097100 0.1 1000538
22:00−1wsw61196100 0.5 1001445
28 february, sun
sun2801:00−1wsw61197100 0.6 999548
04:00−2wsw61097100 1.2 1000432
07:00−3wnw4797100 0.6 1001310
10:00−9nnw5794100 1.2 1003385
13:00−10nw5792100 0.2 1005493
16:00−11nw5792100 0.3 1008531
19:00−14nw4896100 0.1 1010304
22:00−18nw489797 0.1 1013157
1 march, mon
mon101:00−19nw469874 0.0 1014123
04:00−20nw349979 0.1 101673
07:00−19nw379896 0.1 1017176
10:00−17nnw469692 0.1 1019262
13:00−15nw4694100 0.0 1020348
16:00−14nnw4793100 0.1 1021421
19:00−17nnw4797100 0.0 1022133
22:00−19nw349992 0.1 102443